ECMWFNIL_925_thetae_000.txt.gz
Theta_e
278 277 277 277 277 276 276 276 275 275 276 276 276 276 277 277 277 277 277 277 277 277 277 277 277 277 277 277 277 278 278 278 278 278 280 281 282 282 282 282 284 285
277 277 277 276 276 276 275 275 275 275 275 275 276 276 276 276 276 276 277 277 277 277 277 277 277 277 277 277 277 277 278 278 278 279 279 280 280 281 281 282 283 284
277 277 277 276 275 275 274 274 274 274 275 275 275 275 275 276 276 276 276 276 276 276 276 276 276 276 276 276 276 277 277 277 277 278 278 278 278 279 280 281 282 284
277 277 276 275 275 274 274 273 274 274 274 274 274 275 275 275 275 276 276 276 276 276 276 276 276 276 276 276 276 276 276 276 277 277 277 277 278 279 280 281 283 284
277 276 275 274 274 273 273 273 273 273 273 274 274 274 274 275 275 275 275 275 276 276 276 276 276 276 276 276 275 275 276 276 276 277 277 278 278 279 280 280 281 282
276 275 274 274 273 273 273 273 273 273 273 273 273 273 274 274 274 274 275 275 275 275 275 275 276 276 275 275 275 275 275 275 276 276 277 277 278 279 278 278 279 280
275 274 274 273 273 272 272 272 272 272 272 272 272 273 273 273 273 274 274 274 275 275 275 275 275 275 275 275 274 274 274 274 275 275 276 276 277 278 277 277 278 280
275 274 274 273 273 272 272 272 272 272 272 272 272 272 272 272 272 273 273 273 274 274 274 274 274 274 274 274 273 273 273 273 274 274 275 275 276 277 277 277 278 279
275 274 273 273 272 271 271 271 271 271 271 271 271 271 271 271 272 272 272 273 273 273 273 273 273 273 273 273 273 272 272 273 273 274 274 275 275 275 276 276 277 277
275 274 273 272 271 271 271 270 270 270 270 270 270 270 270 271 271 271 271 271 272 271 271 271 271 271 271 271 272 272 272 272 272 273 274 274 275 275 275 275 275 276
274 273 271 271 270 270 270 270 269 269 269 269 269 270 270 270 270 270 270 270 270 270 270 269 270 270 270 270 271 271 271 271 272 272 273 274 274 274 274 274 275 275
273 271 271 270 270 270 269 269 269 269 269 269 269 269 269 269 268 268 268 268 268 268 268 268 268 268 269 269 269 270 270 270 271 272 272 273 273 274 274 274 274 275
271 271 270 270 269 269 269 268 268 268 268 268 268 268 267 267 267 267 267 267 267 267 267 267 267 267 268 268 268 269 269 270 271 271 272 272 273 273 274 274 274 274
270 270 270 269 269 268 268 267 267 267 267 266 266 266 265 265 265 265 265 265 266 266 266 266 266 266 267 267 268 269 269 270 270 271 272 272 273 273 273 273 274 274
270 269 269 268 268 268 267 267 266 266 265 264 264 264 264 264 264 264 264 264 264 265 265 265 266 266 267 268 268 269 270 270 270 271 271 272 272 273 273 273 273 274
269 268 268 268 268 267 267 266 265 264 264 263 263 263 263 263 263 263 263 264 264 264 265 265 266 266 267 268 269 270 271 271 272 272 272 272 272 273 273 273 274 274
268 267 267 268 268 267 266 265 264 263 263 262 262 262 262 263 263 263 263 263 264 264 265 265 266 266 267 269 270 271 272 273 273 273 274 274 274 274 274 274 275 275
267 267 268 268 267 266 265 264 263 262 262 262 262 262 262 263 263 263 263 264 264 265 265 266 266 267 268 269 271 272 273 274 274 274 274 275 275 275 275 275 276 276
267 267 268 268 267 266 264 263 262 262 262 262 262 262 263 263 263 264 264 264 265 265 265 266 266 267 268 270 271 272 273 274 275 275 275 275 275 276 276 276 276 276
267 267 267 267 266 265 263 262 262 262 262 262 262 262 263 263 264 264 264 264 265 265 265 265 266 267 268 270 271 272 273 275 275 276 276 276 276 276 276 276 276 276
267 267 267 267 266 264 263 262 262 262 262 262 262 263 263 263 264 264 264 264 264 264 265 265 265 266 268 270 271 273 274 275 276 276 277 277 277 277 277 277 277 277
267 266 267 266 265 263 263 262 262 262 262 262 263 263 263 263 264 264 264 264 264 264 264 265 265 266 268 269 271 273 274 275 276 277 277 278 277 277 277 277 277 277
266 266 266 265 264 263 262 262 262 262 262 262 263 263 263 263 263 263 263 264 264 264 264 265 265 266 268 269 271 272 274 275 276 277 278 278 278 278 277 277 277 277
267 267 265 264 264 263 262 261 262 262 262 262 263 263 263 263 263 263 263 263 263 264 264 265 266 266 268 269 271 272 274 275 276 277 277 278 278 278 278 278 278 278
268 267 265 264 263 263 262 261 262 262 262 262 262 262 263 263 263 263 263 263 263 264 264 265 266 266 267 269 271 272 274 275 275 276 277 277 278 279 279 278 278 279
268 266 265 264 263 262 262 261 262 262 262 262 262 262 262 262 263 263 263 263 264 264 265 265 265 266 267 269 271 272 273 274 275 275 276 277 278 279 279 279 279 279

ECMWFNIL_925_thetae_003.txt.gz
Theta_e
280 279 279 278 278 278 277 277 277 277 277 277 277 278 277 277 277 277 277 276 276 276 276 276 276 277 277 277 277 277 277 278 278 278 278 278 278 279 279 279 279 280
280 279 279 278 278 278 278 278 277 277 277 277 277 277 277 277 277 276 276 275 276 276 276 276 276 276 277 277 277 277 277 277 277 278 278 278 278 278 279 279 279 280
280 279 278 278 278 279 279 279 278 277 277 277 277 277 276 276 276 276 275 275 275 275 275 276 276 276 276 276 277 277 277 277 277 277 277 277 277 277 278 278 278 278
279 279 279 279 279 279 279 278 278 277 277 277 277 276 276 275 275 274 274 274 274 274 275 275 275 275 276 276 276 276 277 277 277 277 277 277 277 277 277 277 277 278
280 279 279 279 279 279 278 278 277 277 277 277 276 276 275 275 274 273 273 273 273 274 274 274 274 275 275 276 276 276 276 276 276 276 276 276 276 276 277 277 277 278
280 280 280 280 279 279 278 277 277 277 276 276 275 275 274 274 273 273 272 272 273 273 273 273 274 274 275 275 275 276 276 276 276 276 276 276 276 276 276 276 276 277
280 280 280 279 279 278 277 277 276 276 275 274 274 274 273 272 272 271 272 272 272 272 273 273 273 274 274 275 275 275 275 275 275 275 275 275 275 275 275 275 275 276
280 279 279 278 278 277 276 276 275 275 274 273 273 272 271 271 271 271 271 271 272 272 272 272 272 273 273 273 273 273 273 274 274 274 274 274 274 274 274 274 275 275
279 278 278 277 277 276 275 275 274 274 273 272 271 271 270 270 270 270 271 271 271 271 271 271 271 272 272 272 272 272 272 272 273 273 273 273 273 273 273 273 274 275
278 277 276 276 275 274 274 274 274 273 272 270 270 270 269 270 270 270 270 270 270 270 270 270 270 270 270 270 270 270 270 271 271 271 271 272 272 272 272 273 273 274
277 276 275 275 274 273 273 273 273 271 270 269 269 269 269 269 269 268 268 268 268 268 268 268 268 268 268 268 268 269 269 269 269 270 270 270 271 271 271 272 272 273
276 275 275 274 273 273 273 272 271 270 269 268 268 267 267 267 267 267 266 266 266 266 266 266 266 266 267 267 267 267 267 268 268 268 269 269 270 270 271 271 272 272
275 275 274 273 273 273 273 271 270 268 268 267 266 266 266 265 265 265 265 265 265 265 265 265 265 265 265 266 266 266 267 267 267 268 268 269 269 270 270 271 271 272
275 274 273 273 273 273 272 270 268 267 267 266 266 265 265 264 264 264 264 264 264 264 264 264 264 265 265 265 266 266 266 267 267 268 268 269 269 270 270 271 271 272
274 273 272 273 273 272 270 268 267 267 267 266 266 265 265 264 263 263 263 263 264 264 264 264 264 265 265 266 266 267 267 268 269 269 270 270 270 270 271 271 271 272
273 273 272 273 273 271 269 268 267 267 267 267 267 265 264 264 263 263 263 263 264 264 264 264 265 265 266 267 268 269 269 270 270 271 271 271 272 272 272 272 272 272
272 272 273 273 271 269 268 267 267 267 267 267 266 265 264 263 263 263 263 264 264 264 265 265 265 265 266 267 269 270 270 270 271 271 272 272 273 273 273 274 274 274
272 273 273 272 270 268 268 267 267 268 268 267 265 264 263 263 263 263 264 264 264 264 265 265 265 265 266 268 268 269 270 271 271 271 272 273 273 274 274 274 275 275
272 273 272 270 269 268 267 267 268 268 267 266 264 263 263 263 263 263 264 264 264 264 264 264 264 265 266 268 268 269 270 271 271 272 272 273 274 274 275 275 275 275
273 272 271 269 268 268 268 268 268 268 266 265 264 263 263 263 263 263 263 263 264 264 264 264 264 265 266 268 269 270 271 271 272 272 273 273 274 274 275 276 276 276
273 271 269 268 268 269 269 269 268 267 265 264 263 263 263 263 263 263 263 263 263 263 264 264 264 265 266 268 269 270 271 272 272 272 272 273 274 274 275 276 276 277
271 270 268 268 268 269 269 269 267 266 265 264 263 263 263 263 263 263 263 263 263 263 263 263 264 265 267 268 269 271 271 272 272 272 273 273 274 274 275 275 276 277
270 268 267 268 269 269 269 268 266 265 264 263 263 263 262 263 263 263 263 263 263 263 264 264 264 265 267 269 270 270 271 271 272 272 273 273 273 273 274 275 276 276
269 267 267 268 269 268 268 267 266 265 264 263 263 262 262 263 263 263 263 263 263 264 264 264 265 266 267 269 269 270 271 272 272 272 272 272 273 273 274 274 275 276
268 266 267 268 268 268 268 267 265 265 264 263 263 263 263 263 263 263 263 263 264 264 265 265 266 266 267 268 270 271 272 272 272 272 272 272 273 273 273 274 274 275
267 267 267 267 268 268 268 267 265 264 264 263 263 263 263 263 263 263 263 264 265 265 266 266 266 266 267 269 270 271 272 272 272 272 272 272 272 273 273 274 275 275

ECMWFNIL_925_thetae_006.txt.gz
Theta_e
283 282 282 282 282 282 281 281 280 280 280 280 279 279 279 279 279 279 278 278 278 278 278 278 278 278 279 279 279 279 280 280 280 280 280 280 280 280 281 281 280 281
282 282 282 282 281 281 281 280 280 280 280 279 279 278 278 278 278 278 277 277 277 277 278 278 278 278 278 279 279 279 279 280 280 280 280 280 280 280 280 280 280 280
282 281 282 282 281 281 280 280 279 279 279 279 278 277 277 277 277 277 277 277 277 277 277 277 278 278 278 278 278 278 279 279 279 279 279 280 280 280 280 279 280 280
281 281 282 281 281 280 280 279 279 278 278 278 277 277 276 276 276 276 276 276 276 276 276 276 277 277 277 277 277 278 278 278 278 278 279 279 279 279 279 279 279 279
281 281 281 281 280 280 279 279 279 278 277 277 276 276 275 276 276 275 275 275 275 275 275 276 276 276 276 276 277 277 277 277 278 278 278 278 278 278 278 278 278 279
281 281 281 280 280 280 280 279 278 277 276 276 275 275 275 275 275 274 274 274 274 275 275 275 275 275 276 276 276 276 276 276 277 277 277 278 278 278 278 278 278 278
281 280 280 280 280 280 279 278 277 277 276 275 275 275 274 274 274 274 274 274 274 274 274 275 275 275 275 275 275 275 275 276 276 276 276 276 276 276 277 277 277 277
280 280 280 280 280 279 278 278 277 276 275 275 275 274 274 273 273 273 273 273 273 274 274 274 274 274 274 274 274 274 274 274 274 275 275 275 275 275 275 276 276 277
280 280 280 280 279 278 278 277 276 275 275 275 274 273 273 273 273 273 273 273 273 273 273 273 272 272 272 272 272 272 272 272 273 273 273 273 273 273 273 274 275 275
280 280 280 279 278 278 277 276 276 275 275 274 273 272 272 272 272 272 272 271 271 271 271 271 271 271 270 270 270 270 270 271 271 271 271 271 272 272 272 272 273 273
280 280 279 278 278 277 276 276 276 275 275 273 272 272 271 271 271 271 270 270 270 270 269 269 269 269 269 269 269 269 269 269 270 270 270 270 270 270 271 271 271 271
279 279 278 278 277 276 276 276 275 274 273 272 272 271 271 270 270 270 269 269 268 268 268 268 268 268 268 268 268 268 268 268 269 269 269 269 269 269 269 270 270 270
279 278 278 277 276 276 276 275 275 274 273 272 272 271 270 269 269 269 268 268 268 267 267 267 267 267 268 268 268 268 268 268 269 269 269 269 269 269 269 269 270 270
278 278 277 276 276 275 275 275 274 274 273 272 271 270 269 269 269 268 267 267 267 267 267 267 267 267 268 268 268 268 268 269 269 269 269 269 269 270 270 270 270 270
277 277 276 275 275 275 275 274 274 273 273 271 270 270 270 269 268 267 266 266 267 267 267 267 267 268 268 268 268 269 269 270 270 270 271 271 271 271 271 271 271 271
276 276 275 275 275 274 274 273 273 272 272 271 270 270 270 269 268 267 266 266 267 267 267 267 268 268 268 268 269 270 270 271 271 271 271 271 271 271 271 271 272 272
275 275 274 274 274 274 273 272 272 271 271 270 270 269 269 268 266 266 266 266 267 267 267 267 267 267 268 269 270 271 271 271 271 271 272 272 272 272 272 272 272 272
275 274 274 274 273 273 272 272 271 270 270 269 269 268 268 267 266 266 266 266 266 267 267 267 267 267 268 269 270 271 271 272 272 272 272 272 272 272 272 272 273 273
274 274 274 273 273 272 272 271 270 269 269 268 268 268 267 266 266 266 266 266 266 266 266 266 266 267 268 270 270 271 272 272 272 272 273 273 273 273 273 273 273 273
274 274 273 273 272 271 271 270 269 269 268 268 267 266 266 266 266 266 266 266 266 266 266 266 266 267 268 270 270 271 272 272 273 273 272 272 272 272 272 272 273 273
274 273 273 272 271 271 270 269 268 268 268 267 266 266 266 266 266 266 266 266 266 266 266 266 266 267 269 270 270 271 272 272 272 272 272 272 272 272 272 272 273 273
273 273 272 271 271 270 270 269 268 267 267 266 266 266 266 266 265 265 265 265 265 265 265 266 267 267 268 269 270 271 272 272 272 272 272 272 272 272 272 272 272 272
273 272 272 271 270 270 269 268 267 267 266 266 266 266 266 265 265 265 265 265 265 265 266 266 267 267 268 269 270 271 272 272 272 273 273 273 273 272 272 272 272 272
273 272 271 271 270 270 269 267 267 267 266 266 266 266 266 265 265 265 265 265 265 266 266 266 267 267 269 270 271 271 272 273 273 273 273 273 273 273 273 273 273 273
272 272 271 270 270 270 268 268 268 266 266 266 267 266 265 265 265 265 265 265 266 266 267 267 267 268 269 270 271 272 273 273 273 273 273 273 273 273 273 273 273 273
272 271 271 270 270 269 267 268 268 266 266 267 267 266 265 265 265 265 265 265 266 267 267 268 268 268 269 270 271 272 273 273 274 274 274 274 274 274 274 274 274 274

ECMWFNIL_925_thetae_009.txt.gz
Theta_e
287 287 287 287 287 286 286 285 285 285 284 284 284 284 284 284 283 282 281 281 280 280 280 280 280 280 281 281 281 281 281 281 282 282 282 282 282 282 282 282 282 283
287 287 286 286 286 286 285 285 285 284 284 284 284 284 284 283 283 281 280 280 280 280 279 280 280 280 280 281 281 281 281 281 281 281 281 281 282 282 282 282 282 282
286 286 286 286 285 285 285 284 284 284 284 283 283 283 283 283 282 280 279 279 279 279 279 279 279 279 279 280 280 280 280 280 280 280 280 281 281 281 281 281 282 282
286 286 285 285 284 284 284 284 283 283 283 283 283 283 282 281 280 279 278 278 278 278 279 278 278 278 278 279 279 279 279 279 279 280 280 280 280 280 280 281 281 281
286 285 285 284 284 283 283 283 283 283 283 283 282 281 280 279 279 278 278 278 278 278 278 278 278 278 278 278 278 278 279 279 279 279 279 279 279 280 280 280 280 280
285 284 284 284 283 283 283 283 283 283 283 282 281 279 279 278 278 278 278 278 277 277 277 277 277 277 278 278 278 278 278 278 278 278 278 278 279 279 279 279 279 280
284 284 283 283 283 283 283 283 283 283 282 281 279 278 278 278 277 277 277 277 277 277 277 277 277 277 277 277 277 277 277 277 277 277 277 277 277 277 278 278 278 278
283 283 283 282 282 282 282 282 282 282 281 280 278 278 277 277 277 277 276 276 276 276 276 276 276 276 276 276 276 276 276 276 276 275 276 276 276 276 276 277 277 277
283 282 282 282 281 282 282 282 281 280 279 278 278 277 277 276 276 276 276 275 275 275 275 275 275 275 275 275 274 274 274 274 274 274 274 274 274 274 274 275 275 275
282 281 281 281 281 281 282 281 280 279 278 277 277 277 276 276 275 275 275 275 275 274 274 274 274 274 273 273 273 273 273 272 272 272 272 272 273 273 273 273 273 273
281 281 281 281 281 281 281 280 279 278 277 277 276 276 276 275 275 274 274 274 273 273 273 273 273 272 272 272 272 272 271 271 271 271 271 271 271 272 272 272 272 272
281 280 280 280 281 280 280 279 278 277 276 276 276 275 275 275 274 274 273 273 272 272 272 272 271 271 271 271 271 271 271 271 271 271 271 271 271 271 271 271 271 271
280 280 280 280 280 279 278 278 277 276 276 276 276 275 275 275 274 273 273 272 271 271 271 271 271 271 270 270 270 270 270 270 271 271 271 271 271 271 271 272 272 272
280 280 280 280 279 278 278 277 276 276 276 275 276 276 276 275 274 273 272 271 271 271 271 270 270 270 270 270 270 270 270 271 271 271 271 272 272 272 272 272 272 272
280 280 279 279 278 277 277 276 276 276 276 276 276 276 275 275 274 272 271 270 271 270 270 270 270 270 270 270 270 271 271 271 272 272 272 272 272 272 272 272 272 272
279 279 278 278 278 277 276 276 276 276 276 276 276 275 275 275 274 272 270 270 270 270 270 270 270 270 270 271 271 272 272 272 273 273 273 273 273 273 273 273 273 273
279 278 278 277 277 276 276 275 276 276 275 275 275 275 275 275 273 271 270 269 269 270 270 270 270 270 270 271 272 272 273 273 273 273 273 273 273 273 273 273 273 274
278 278 277 276 276 275 275 275 276 275 275 275 275 275 274 273 271 269 269 269 269 269 270 270 270 270 270 271 272 273 273 274 274 274 274 274 274 274 274 273 273 273
277 277 276 275 275 275 275 275 275 275 274 274 274 274 273 271 269 269 269 269 269 269 269 269 269 270 270 271 272 273 274 274 274 274 274 274 274 273 273 273 273 273
277 276 275 275 274 275 275 275 274 274 274 273 273 273 271 269 269 268 268 268 269 269 268 269 269 270 270 271 272 273 274 274 274 274 274 273 273 273 273 273 273 273
276 275 275 274 274 274 274 274 274 273 273 273 272 271 269 269 269 268 268 268 268 268 268 268 270 270 270 271 272 273 274 274 274 273 273 273 273 273 273 273 274 274
275 275 274 273 273 273 273 273 273 273 272 272 271 269 268 268 268 268 268 268 268 268 267 268 269 270 270 271 272 273 274 274 273 273 273 273 273 274 274 274 274 274
275 274 273 273 273 273 273 272 272 272 271 270 269 268 268 268 268 268 268 268 268 268 267 267 268 269 270 271 272 273 274 274 273 274 274 274 274 274 274 274 274 274
274 274 274 273 273 273 272 272 271 271 270 269 268 268 268 268 267 267 268 268 268 268 267 267 268 269 270 271 272 273 274 274 274 274 274 274 274 274 275 275 275 275
274 274 274 273 273 273 272 272 271 270 270 269 268 268 268 267 267 267 268 269 268 268 268 268 269 269 270 271 272 273 273 274 274 274 274 274 274 275 275 275 275 274
273 273 273 273 273 272 272 271 271 270 269 268 268 267 267 267 267 267 268 268 268 268 268 269 269 270 270 271 272 273 273 274 274 274 274 274 275 275 275 274 274 273

ECMWFNIL_925_thetae_015.txt.gz
Theta_e
293 293 293 293 292 292 292 291 291 291 290 290 290 290 289 288 288 287 287 286 286 286 286 286 286 286 286 285 285 284 283 282 282 282 282 281 281 281 281 281 281 281
293 292 292 292 292 292 292 291 291 291 291 290 290 290 289 288 287 287 286 286 286 286 286 286 285 285 285 285 284 283 283 282 282 281 281 281 281 280 280 280 280 280
292 292 292 292 292 291 291 291 291 291 291 290 290 289 288 288 287 287 286 286 286 285 285 285 284 284 284 284 284 283 282 281 281 281 280 280 280 280 280 280 280 280
292 292 292 292 291 291 291 291 291 290 290 290 289 288 288 288 287 286 286 286 285 285 285 285 284 284 284 284 283 282 281 281 281 280 280 280 280 279 279 279 279 279
291 291 291 291 291 291 291 291 291 290 290 289 289 288 288 287 287 286 286 285 285 285 285 284 284 284 283 283 282 281 281 281 280 280 280 279 279 279 278 278 278 278
291 291 291 291 290 290 290 290 290 290 289 289 288 288 287 287 286 286 286 285 285 285 285 284 283 283 283 282 282 281 281 280 280 279 279 279 278 278 278 278 277 277
290 290 290 290 290 290 290 290 289 289 289 288 288 287 287 286 286 286 285 285 285 285 285 284 283 283 283 282 281 281 280 280 279 278 278 278 278 277 277 277 276 276
290 290 289 289 289 289 289 289 289 289 288 288 288 287 286 286 286 285 285 285 285 285 284 283 283 283 282 281 280 280 280 279 278 278 278 277 277 277 276 276 275 275
290 289 289 289 289 288 288 288 288 288 288 288 287 286 286 285 285 285 285 285 285 285 284 283 283 282 281 281 280 280 279 278 278 277 277 277 276 276 275 275 274 274
289 289 288 288 288 288 287 287 287 287 287 287 286 286 285 285 285 285 285 285 285 284 283 282 282 281 280 280 280 279 279 278 278 277 277 276 275 275 275 274 274 273
289 288 288 287 287 287 287 286 286 286 286 286 286 285 285 284 284 284 284 285 284 284 283 282 282 281 280 280 280 279 278 278 277 277 276 275 275 274 274 274 273 273
288 287 287 287 286 286 286 285 285 285 285 285 285 284 284 283 283 284 284 284 284 283 282 282 281 281 280 280 280 279 278 278 277 277 275 274 274 273 273 273 272 272
288 287 286 286 286 285 285 284 284 284 284 284 284 284 283 283 283 283 283 283 283 282 281 281 281 280 280 280 279 278 278 277 277 276 274 273 273 273 272 272 272 272
287 287 286 286 285 284 284 283 283 283 283 283 283 283 283 283 283 283 282 281 281 281 281 280 280 279 279 279 279 278 277 277 276 275 273 272 272 272 272 273 273 273
287 286 286 285 284 283 283 282 282 282 282 282 282 282 282 282 282 282 282 281 280 280 280 279 279 279 279 279 279 278 277 276 275 273 272 272 272 272 273 273 273 273
286 286 285 284 283 283 282 282 281 281 281 281 281 281 281 281 281 281 281 281 280 279 279 279 279 279 279 279 278 277 276 275 274 273 272 272 273 273 273 274 274 274
286 285 284 283 283 282 282 281 281 281 280 280 280 280 280 280 280 279 279 279 279 279 279 279 279 279 279 278 277 277 276 275 274 273 273 273 273 274 274 274 275 275
285 284 283 283 282 281 281 280 280 280 280 279 279 279 279 278 278 278 278 278 278 278 278 279 279 279 278 277 276 276 275 275 274 274 274 274 274 275 275 275 275 274
284 283 282 282 281 281 280 280 279 279 279 279 278 278 278 277 277 277 277 277 278 278 278 278 278 278 278 276 276 275 276 276 275 275 275 275 275 275 275 275 274 274
284 283 282 281 281 280 279 279 278 278 278 278 277 277 276 276 276 276 276 277 277 278 278 278 278 278 277 276 275 275 276 277 276 275 275 275 275 275 275 274 273 273
283 282 281 281 280 279 279 278 278 278 277 277 276 276 275 275 275 275 276 277 277 278 278 278 278 277 276 275 275 275 276 276 276 275 275 275 275 274 274 273 273 273
283 282 281 280 279 278 278 277 277 277 276 276 275 275 275 274 275 275 276 277 277 278 278 278 277 276 275 274 274 275 276 276 276 275 275 274 274 273 273 273 273 274
282 281 280 279 278 277 277 277 276 276 275 275 274 274 273 273 274 275 276 277 278 278 277 277 276 275 274 274 274 275 276 275 275 275 274 274 273 273 273 273 273 273
282 281 280 279 278 277 277 276 276 275 275 274 274 273 273 273 275 276 276 277 278 277 277 276 276 274 274 273 274 275 275 275 274 274 274 273 273 273 273 273 273 274
281 281 280 279 277 277 276 276 275 275 274 274 274 273 273 274 275 276 276 276 277 277 276 276 275 274 273 273 273 275 275 275 274 274 273 273 273 273 273 274 274 274
281 280 279 278 277 277 276 275 275 274 273 273 273 273 273 273 274 275 275 275 275 275 275 275 274 273 272 272 273 274 275 275 274 273 274 274 273 274 274 274 274 273

ECMWFNIL_925_thetae_021.txt.gz
Theta_e
296 296 296 296 295 295 295 294 294 294 294 293 293 293 293 292 292 292 292 292 290 289 288 288 288 287 287 287 287 287 287 288 288 288 287 287 287 286 285 285 285 285
296 296 296 295 295 295 295 295 295 294 294 294 293 293 293 292 292 292 292 292 291 289 288 288 287 287 287 287 286 287 287 287 287 287 287 286 286 285 285 285 285 284
296 295 295 295 295 295 295 294 294 294 294 294 293 293 292 292 292 292 292 291 291 290 288 288 287 287 286 286 286 286 286 287 287 286 286 286 286 285 285 284 284 284
295 295 295 295 295 294 294 293 293 293 293 293 293 293 292 292 292 291 291 291 290 289 288 288 287 286 286 286 286 286 286 286 286 286 286 285 285 284 284 284 284 284
295 295 295 295 294 294 293 293 293 293 293 293 293 292 292 291 291 291 291 290 290 289 288 287 287 286 286 285 285 285 285 285 285 285 285 284 284 284 283 284 283 283
295 295 294 294 294 293 293 293 293 293 292 292 292 292 291 291 291 291 290 290 289 288 287 287 286 286 285 285 285 285 285 285 285 285 284 284 283 283 283 283 283 283
295 295 294 294 293 293 293 293 292 292 292 292 292 291 291 291 290 290 290 290 289 288 287 287 286 286 285 285 284 284 284 284 284 284 283 283 283 283 282 282 282 283
295 294 294 293 293 292 292 292 292 292 292 292 291 291 291 291 290 290 290 290 289 288 287 286 286 286 285 285 284 284 284 284 284 283 283 282 283 283 282 282 282 282
293 293 293 293 292 292 292 292 292 292 291 291 291 290 290 290 290 290 289 289 288 287 287 286 286 285 285 285 284 284 284 283 283 283 283 283 283 282 282 282 282 282
293 293 293 292 292 292 292 292 292 291 291 291 290 290 290 290 290 289 289 289 288 287 287 286 285 285 284 284 284 284 284 283 283 282 282 283 283 283 282 282 282 282
293 292 292 292 292 292 292 292 292 291 290 290 290 289 289 289 289 288 288 288 288 287 287 286 285 285 284 284 284 284 284 283 283 282 282 282 282 282 283 282 282 282
292 292 292 292 292 292 292 292 291 290 290 289 289 289 289 288 288 288 288 288 288 288 287 286 285 285 284 284 284 283 283 283 282 282 282 282 282 282 282 282 282 282
292 292 292 292 292 292 291 291 291 290 289 289 289 288 288 288 287 287 287 288 288 287 286 286 285 284 284 283 283 283 283 282 282 281 281 281 281 281 282 282 282 282
292 292 292 292 292 291 291 290 290 290 289 289 288 288 288 287 287 287 287 287 287 286 286 285 285 284 283 283 283 282 282 281 281 281 280 280 281 281 281 281 281 281
292 292 292 291 291 290 290 290 290 289 289 288 288 287 287 287 287 287 286 286 285 285 284 284 284 283 283 283 282 282 281 280 280 280 280 280 280 280 280 280 280 280
291 291 291 291 290 290 290 289 289 289 288 288 287 287 287 286 286 286 285 285 284 284 283 283 283 282 282 283 283 282 281 280 280 280 280 280 280 279 278 278 279 279
291 291 290 290 290 290 290 289 289 288 288 287 287 286 286 286 285 285 285 284 284 284 283 283 282 282 282 282 282 282 281 280 280 280 279 279 279 279 278 277 277 277
290 290 290 290 289 289 289 289 288 288 287 286 286 286 285 285 285 284 284 284 284 283 283 282 282 282 282 282 281 281 281 280 280 279 279 278 278 278 278 277 276 276
290 290 289 289 289 289 288 288 287 287 287 286 285 285 285 284 284 284 284 283 283 282 282 282 281 281 281 281 281 280 280 280 279 279 279 278 278 277 277 276 275 275
289 289 289 289 288 288 288 287 287 287 286 286 285 284 284 284 283 283 283 283 282 282 281 281 280 280 280 280 280 280 279 279 279 279 278 278 277 277 276 276 275 275
289 289 289 288 288 287 287 286 286 286 285 285 284 284 283 283 283 282 282 282 281 281 280 280 280 279 280 280 281 280 279 278 278 277 277 277 276 276 276 276 276 276
288 288 288 287 287 287 286 286 285 285 284 284 284 283 283 282 282 282 281 281 281 280 280 279 279 279 280 281 281 281 279 278 277 277 276 276 275 275 275 275 276 276
288 287 287 287 287 286 285 285 284 284 284 283 283 282 282 281 281 281 281 280 280 279 279 279 278 278 280 281 282 282 280 278 276 276 275 275 275 275 275 275 276 276
288 287 287 286 286 285 285 284 283 283 283 282 282 282 281 281 280 280 280 280 279 279 279 278 278 278 280 282 282 282 280 278 276 275 275 275 275 275 275 276 276 276
287 287 287 286 285 285 284 283 283 282 282 282 281 281 281 280 280 279 279 279 278 278 278 278 278 278 280 282 283 282 281 278 276 276 275 275 276 276 276 276 275 275
287 287 287 286 285 285 284 283 283 282 281 281 280 280 280 279 279 279 278 278 277 277 277 277 277 277 280 282 283 283 281 278 276 276 276 276 276 276 275 275 275 275

ECMWFNIL_925_thetae_024.txt.gz
Theta_e
297 297 297 297 297 297 296 296 296 295 295 295 295 295 295 295 294 294 293 293 293 292 292 291 290 289 289 289 289 288 288 288 288 288 288 288 289 289 289 289 288 288
297 297 297 297 297 297 297 296 296 296 295 295 295 295 295 294 294 294 294 293 292 292 291 291 290 289 289 289 289 288 288 287 287 287 288 287 288 288 288 288 287 287
296 296 296 297 296 296 296 296 296 295 296 295 295 295 295 294 294 293 293 293 292 292 291 290 290 289 289 289 288 288 287 287 287 287 287 287 287 287 287 287 287 286
296 296 296 296 296 296 295 295 295 295 295 295 295 295 294 294 294 293 293 293 292 292 291 290 290 289 289 288 288 288 287 287 287 287 286 286 286 286 286 286 286 285
296 296 296 296 295 295 295 294 294 294 294 294 294 294 294 293 293 293 293 292 292 292 291 290 289 289 288 288 288 288 287 287 286 286 286 286 286 286 286 285 285 285
296 296 296 296 295 295 294 294 294 294 294 293 294 294 293 293 293 293 292 292 292 291 291 290 289 289 288 288 287 287 287 286 286 286 286 286 286 285 285 285 285 284
295 295 295 295 294 294 294 294 294 294 294 294 293 293 293 293 293 293 292 292 292 291 291 290 289 289 288 288 287 287 286 286 286 286 286 285 285 285 285 285 284 284
294 294 294 294 294 294 294 294 294 294 294 293 293 293 293 293 293 292 292 292 292 291 291 290 289 289 289 288 287 286 286 286 286 285 285 285 285 285 285 284 284 283
293 293 293 293 294 294 294 294 294 293 293 293 293 292 292 292 292 292 292 291 291 291 290 290 289 289 288 288 287 286 286 285 285 285 285 285 284 285 285 284 283 283
293 293 293 293 293 294 294 294 294 293 293 293 292 292 291 291 291 291 291 291 290 290 290 289 289 289 288 288 287 287 286 285 285 285 285 285 285 285 285 284 283 283
293 293 293 293 293 293 294 294 293 293 292 292 291 291 291 291 291 291 290 290 290 290 290 290 289 288 288 287 287 286 286 285 285 284 284 284 284 284 284 284 284 283
292 292 293 293 293 293 293 293 293 292 292 291 291 291 290 290 290 290 290 290 290 290 289 289 289 288 287 287 286 286 285 284 284 284 284 284 284 284 284 284 284 284
292 292 292 293 293 293 293 292 292 292 292 291 291 290 290 290 289 289 289 289 289 289 289 288 288 287 287 286 286 285 285 284 284 283 283 283 283 283 283 283 283 283
291 292 292 292 293 292 292 292 291 291 291 291 291 290 290 290 289 289 289 289 288 288 288 288 287 287 287 286 285 285 284 284 283 283 283 282 282 283 283 283 283 283
291 291 291 292 292 292 291 291 291 291 291 290 290 290 290 289 289 288 288 288 288 287 287 287 287 287 286 286 285 284 284 283 283 282 282 282 282 282 281 281 281 282
290 290 290 290 291 291 291 291 291 290 290 290 290 289 289 288 288 288 287 287 287 287 287 286 286 286 286 286 285 285 284 283 282 282 282 282 281 280 280 280 280 281
289 289 289 289 289 290 290 290 290 290 290 290 289 289 288 288 287 287 287 287 287 286 286 286 286 286 285 285 285 285 284 283 282 282 281 281 281 280 280 280 279 280
289 289 288 288 288 289 289 289 289 289 289 289 289 288 288 287 287 287 286 286 286 286 286 286 286 285 285 285 284 284 284 284 282 282 281 280 280 280 279 279 279 279
289 289 288 288 288 288 288 288 288 288 289 288 288 288 287 287 286 286 286 286 286 286 285 285 285 285 284 284 284 284 284 283 282 281 281 280 280 279 279 279 278 278
289 289 289 289 288 287 287 287 288 288 288 288 288 287 286 286 286 285 285 285 285 285 285 285 285 284 284 284 284 284 283 283 282 281 280 280 279 279 279 278 279 279
288 289 289 289 289 288 287 287 287 287 287 287 287 287 286 286 285 285 285 285 285 284 284 284 284 284 283 283 283 284 284 283 282 281 280 279 279 278 278 278 278 279
288 288 288 289 289 288 287 286 286 286 287 286 286 286 286 285 285 285 284 284 284 284 284 284 283 283 283 283 284 284 284 283 281 280 279 278 278 278 277 277 277 277
287 288 288 288 289 288 288 287 286 286 286 286 285 285 285 285 284 284 284 284 284 284 283 283 283 282 282 283 284 284 284 283 281 279 278 278 277 277 276 276 276 277
287 288 288 288 288 288 288 288 287 286 285 285 285 285 284 284 284 284 284 283 283 283 283 282 282 282 282 283 284 284 284 283 280 278 277 277 277 276 276 276 276 276
287 288 288 288 288 288 288 288 287 286 285 285 284 284 284 284 284 283 283 283 283 283 282 282 282 281 281 283 284 285 284 283 280 278 277 276 276 276 276 276 276 276
288 288 288 288 288 288 287 287 287 286 285 284 284 283 283 283 282 282 282 282 282 282 281 281 281 280 281 283 284 285 285 282 279 278 277 276 276 276 276 276 276 276

ECMWFNIL_925_thetae_027.txt.gz
Theta_e
297 297 297 297 297 297 296 296 296 296 296 296 296 296 296 295 295 294 294 294 294 294 294 294 294 294 293 293 292 291 290 290 290 290 290 290 290 290 290 290 291 292
296 297 296 296 296 296 296 296 296 296 296 296 296 296 296 295 295 294 294 294 294 294 294 294 294 293 293 293 292 291 290 290 290 289 289 289 290 289 289 290 290 291
296 296 296 296 296 296 296 296 296 296 296 296 296 296 295 295 295 294 294 294 294 293 293 293 293 293 292 292 291 291 290 290 289 289 289 289 289 289 289 289 290 290
295 295 295 296 295 295 295 295 295 295 295 295 295 296 296 295 295 294 294 294 293 293 293 292 292 292 291 291 290 290 290 289 289 289 289 289 288 289 289 289 289 289
294 295 295 295 295 295 295 295 295 295 295 295 295 295 295 295 295 295 294 294 293 293 292 292 291 291 291 290 289 289 289 289 288 288 288 288 288 288 288 288 288 288
294 294 294 294 295 295 295 295 295 295 295 295 295 295 294 294 294 294 294 294 294 293 293 292 291 291 290 289 289 289 288 288 288 288 288 288 288 288 288 288 288 288
293 293 293 294 294 294 294 294 294 295 294 294 294 294 294 294 294 294 294 294 294 293 293 292 292 291 290 289 289 288 288 288 288 287 287 287 287 287 287 287 287 287
292 292 292 293 293 293 293 294 294 294 294 294 294 293 293 293 293 293 293 293 293 293 293 292 291 291 290 289 289 288 288 287 287 287 287 287 286 286 286 286 286 286
291 291 291 291 292 292 293 293 293 293 294 293 293 293 293 293 293 293 293 292 292 292 292 291 291 290 290 290 289 288 288 287 287 286 286 286 286 286 286 286 285 285
291 291 290 291 291 291 292 292 292 293 293 293 292 292 292 292 292 292 292 292 291 291 291 291 290 290 290 289 289 288 287 287 287 286 286 286 285 285 286 285 285 285
291 291 290 290 290 290 290 291 291 292 292 292 292 292 292 291 291 291 291 291 291 291 291 291 290 290 290 289 289 288 287 287 287 286 285 285 285 285 285 285 285 285
290 290 290 290 290 289 290 290 290 290 291 291 291 291 291 291 290 290 290 290 291 290 290 290 290 290 289 289 289 288 288 287 286 286 285 285 285 285 285 285 285 285
289 289 290 290 290 289 289 289 289 289 290 290 290 291 291 290 290 290 290 290 290 290 290 290 289 289 289 289 288 288 287 287 286 286 285 285 285 284 284 284 284 285
289 289 289 290 290 290 290 289 289 289 289 289 290 290 290 290 290 290 290 289 289 289 289 289 289 289 289 288 288 287 287 287 286 286 285 285 284 284 284 284 284 284
288 288 288 289 290 290 291 290 289 289 289 288 289 289 289 290 290 290 289 289 288 288 288 289 288 288 288 288 288 287 287 286 286 286 285 284 284 284 283 283 283 283
288 288 288 288 288 290 290 291 290 289 289 288 288 288 289 289 289 289 289 288 288 288 288 288 288 288 288 288 288 287 287 286 286 285 285 284 284 283 283 283 283 283
287 287 287 287 287 288 289 290 291 291 290 289 288 288 288 288 288 288 288 288 288 288 287 287 287 288 288 287 287 287 287 286 286 285 285 284 284 283 283 282 282 282
287 286 286 286 286 287 288 289 290 291 291 290 289 288 288 287 288 288 288 288 288 287 287 287 287 287 287 287 287 287 287 286 286 285 285 284 283 283 283 282 282 281
286 286 286 286 286 287 287 288 289 289 290 290 289 288 288 287 287 287 287 287 287 287 287 287 287 287 287 287 287 286 286 286 286 285 284 284 283 283 282 282 281 281
285 285 285 285 286 287 287 287 287 288 289 289 289 288 288 287 287 287 287 287 286 286 286 286 286 287 286 286 286 286 286 286 286 285 284 284 283 283 282 282 281 281
284 284 284 285 285 286 287 287 287 287 287 288 288 288 287 287 287 286 286 286 286 286 286 286 286 286 286 286 286 286 286 286 286 285 284 284 283 283 282 282 281 281
283 283 283 284 286 286 286 286 286 286 286 287 287 287 287 287 286 286 286 286 286 286 285 285 285 285 285 285 285 285 286 286 286 285 284 283 283 282 282 281 281 280
281 281 282 284 286 286 286 285 285 285 285 285 286 286 286 286 286 286 286 285 285 285 285 285 285 285 285 285 285 285 286 286 286 285 284 283 282 282 281 281 280 280
279 279 281 284 286 286 285 284 284 284 284 284 284 285 285 286 286 285 285 285 284 284 284 284 284 284 284 284 284 285 286 286 286 285 284 283 282 281 281 280 279 279
278 278 281 284 284 283 283 282 282 282 282 283 283 283 284 285 285 285 284 284 284 284 284 284 284 284 284 284 284 285 286 286 286 285 284 283 281 280 280 279 279 278
276 278 280 283 282 281 280 280 280 281 281 281 282 282 283 283 283 284 284 284 284 283 283 283 283 283 283 283 283 285 286 286 286 285 284 282 281 280 279 278 278 277

ECMWFNIL_925_thetae_030.txt.gz
Theta_e
296 297 297 298 298 299 299 299 298 298 298 298 298 297 297 297 296 296 295 295 294 294 294 294 294 294 294 293 293 293 292 292 291 291 291 291 291 291 291 291 291 292
295 295 295 296 296 297 297 297 297 297 297 298 297 297 297 297 296 296 295 295 294 294 294 294 294 294 293 293 293 292 292 291 291 291 291 290 290 290 290 290 291 291
293 293 294 294 295 296 296 296 296 296 296 296 297 296 296 296 296 296 295 295 294 294 294 294 293 294 293 293 293 292 292 292 291 291 291 290 290 290 290 290 290 290
292 292 293 293 293 294 294 295 295 295 295 295 295 296 296 296 296 295 295 295 295 294 294 293 293 293 293 293 293 292 292 292 292 291 291 290 290 289 290 290 290 290
291 291 292 292 292 293 293 294 294 294 295 295 295 295 295 295 295 295 295 295 294 294 294 293 293 293 293 292 292 292 292 291 291 291 290 290 290 289 289 289 289 289
291 291 291 291 291 292 292 293 293 293 294 294 294 294 294 294 294 294 294 294 294 294 294 293 293 293 292 292 292 291 291 291 291 291 291 290 289 289 289 289 289 289
291 291 291 291 290 290 291 292 292 292 292 293 293 293 293 293 294 294 294 294 294 294 294 293 293 293 292 292 291 291 291 291 291 290 290 290 289 289 289 288 288 288
289 289 290 291 291 290 290 290 291 291 291 291 292 292 292 292 293 293 293 293 293 293 293 293 293 293 292 292 291 291 291 290 290 290 290 290 289 289 289 288 288 288
289 288 289 289 290 290 290 290 290 290 290 290 291 291 291 292 292 292 292 292 293 293 293 293 293 292 292 292 291 291 290 290 290 290 290 289 289 289 288 288 288 287
288 288 288 288 289 289 290 290 290 290 289 290 290 290 290 291 291 291 291 291 291 292 292 292 292 292 292 292 291 291 290 290 290 290 289 289 289 289 289 288 288 288
287 287 287 287 287 288 289 289 290 290 290 289 289 290 290 290 290 290 290 291 291 291 291 292 292 292 292 292 291 291 291 290 290 289 289 289 289 289 289 288 288 288
287 286 286 286 286 287 287 288 289 289 290 290 289 289 289 289 290 290 290 290 290 290 291 291 291 291 291 291 291 291 291 290 290 289 289 289 288 288 288 288 288 288
287 286 285 285 285 285 286 287 287 288 289 290 290 290 289 289 289 289 289 289 289 289 289 290 290 290 290 290 290 290 290 290 289 289 289 288 288 288 288 288 288 288
287 286 285 285 284 285 285 286 286 287 287 288 289 290 290 289 288 288 288 289 289 289 289 289 289 289 289 289 290 289 289 289 289 288 288 288 288 288 287 288 287 287
287 286 285 284 284 284 284 285 285 285 286 286 287 288 289 289 289 288 288 288 288 288 288 288 288 289 289 289 289 289 289 289 288 288 288 288 287 287 287 287 287 286
286 286 285 284 284 284 284 284 285 285 285 285 285 286 287 288 289 289 288 288 288 288 288 288 288 288 288 288 289 288 288 288 288 288 288 287 287 287 287 286 286 286
286 286 285 284 284 283 283 284 285 285 284 284 284 284 285 286 287 288 288 288 288 288 288 288 288 288 288 288 288 288 288 288 288 288 288 287 287 287 286 286 286 285
285 285 285 285 284 283 283 284 285 285 284 284 284 284 284 284 285 286 287 287 288 288 288 287 287 287 287 287 287 288 288 288 288 288 287 287 287 287 286 286 286 285
284 284 284 284 283 282 283 285 286 285 285 284 283 283 283 283 284 284 285 286 287 287 287 287 287 287 287 287 287 287 287 287 288 288 287 287 287 287 286 286 286 286
283 283 282 282 281 281 282 285 286 285 285 284 284 283 283 283 283 283 284 284 285 286 286 287 287 287 287 286 286 287 287 287 287 287 287 287 287 287 287 286 286 286
282 282 281 280 280 280 282 285 286 286 285 284 284 284 283 283 282 282 283 283 283 284 285 285 286 287 287 286 286 286 287 287 287 287 287 287 287 287 287 286 286 286
281 281 280 279 278 278 280 283 285 285 284 283 283 283 284 283 282 282 282 282 283 283 284 284 285 286 286 287 286 286 287 287 287 288 288 287 287 287 286 286 286 285
280 279 278 278 277 277 279 282 284 283 281 281 282 282 283 283 282 281 281 281 282 282 283 283 284 284 285 286 286 286 286 286 287 287 288 287 287 287 286 286 285 285
279 278 277 277 276 276 278 281 281 280 279 279 280 280 281 281 282 282 281 281 281 282 282 283 283 283 284 285 285 285 285 286 286 287 287 288 287 287 287 286 285 285
278 277 277 276 275 275 277 279 278 277 277 277 277 278 279 279 281 282 282 281 281 281 282 282 282 283 283 284 284 285 285 285 286 286 287 287 287 287 287 286 285 284
277 276 276 275 275 275 276 276 276 275 275 275 275 276 277 278 279 280 281 281 280 281 281 281 282 282 283 283 283 284 284 285 285 286 287 287 287 287 286 285 284 284

ECMWFNIL_925_thetae_033.txt.gz
Theta_e
295 296 297 297 298 298 299 299 300 300 300 300 300 301 301 300 300 299 299 298 298 298 298 298 298 297 297 297 297 296 296 296 295 295 295 294 294 294 294 295 295 296
294 294 295 296 296 297 297 297 298 298 299 299 299 299 300 300 300 299 299 298 298 298 298 297 297 297 297 297 296 296 296 295 295 295 295 294 294 294 294 294 294 295
293 293 293 294 294 295 295 296 296 297 297 297 298 298 298 298 299 299 299 298 297 297 297 297 297 297 297 296 296 296 296 295 295 295 295 294 294 294 294 293 294 294
293 293 293 293 293 293 294 294 295 295 296 296 296 296 297 297 297 298 298 297 297 297 297 297 297 296 296 296 296 296 295 295 295 295 294 294 294 294 294 293 293 293
291 292 293 293 293 293 293 293 293 293 294 294 295 295 295 296 296 296 296 296 296 296 296 296 296 296 296 296 295 295 295 295 295 294 294 294 294 293 293 293 293 293
289 290 290 291 292 292 292 292 292 292 292 293 293 293 294 294 294 295 295 295 296 295 295 295 295 295 295 295 295 295 295 294 294 294 294 294 294 293 293 293 293 292
288 288 288 289 290 290 291 291 291 292 292 292 292 292 293 293 293 294 294 294 295 295 295 295 295 295 295 295 295 294 294 294 294 294 293 293 293 293 293 293 293 292
289 288 288 288 288 288 289 289 290 291 291 291 291 291 291 292 292 292 293 293 293 294 294 294 294 294 294 294 294 294 294 294 294 293 293 293 293 293 293 292 292 292
288 288 288 287 287 287 287 287 288 288 289 290 291 291 291 291 291 291 291 292 292 292 293 293 294 294 294 294 294 293 293 293 293 293 293 293 293 292 292 292 292 292
287 287 287 287 286 286 287 287 287 287 287 288 289 290 290 291 291 291 290 291 291 291 291 292 293 293 293 293 293 293 293 293 293 293 292 292 292 292 292 292 292 292
287 287 286 286 286 286 286 286 286 286 286 286 287 288 289 289 290 290 290 290 290 290 290 291 291 291 292 292 292 292 292 292 292 292 292 292 292 292 292 292 291 291
287 287 287 287 286 285 285 285 285 285 285 285 285 286 287 288 288 289 289 290 290 290 290 290 290 290 290 291 291 291 291 291 291 291 291 291 291 291 291 291 291 291
287 287 287 286 286 285 285 285 285 284 285 285 284 285 285 286 286 287 288 288 289 289 290 290 289 289 289 290 290 290 290 290 290 291 290 290 291 290 290 290 290 290
287 287 287 286 285 285 285 284 284 284 284 284 284 284 285 284 285 285 286 287 288 288 289 289 289 289 289 289 289 289 289 289 290 290 290 290 290 290 290 290 290 290
286 287 287 286 285 285 285 284 284 284 284 284 284 284 284 284 284 284 284 285 286 287 287 288 288 289 289 289 289 289 289 289 289 289 289 289 289 289 290 290 289 289
286 286 286 286 285 285 284 283 283 283 284 284 284 284 284 284 284 284 284 285 285 285 286 286 287 288 288 288 289 288 288 288 288 289 289 289 289 289 289 289 289 289
285 285 285 285 284 284 284 283 282 283 284 284 284 284 284 284 284 284 284 284 285 285 285 285 285 286 286 287 287 288 288 288 288 288 288 288 288 288 289 289 289 289
285 285 284 284 284 283 283 282 282 282 284 285 285 285 284 284 284 284 284 284 284 284 284 285 285 285 285 285 285 286 287 288 288 288 288 288 288 288 288 288 288 288
284 284 283 283 283 282 282 281 281 281 282 284 285 285 285 284 284 284 284 284 284 284 284 284 284 284 284 284 284 284 285 287 288 288 288 288 288 288 288 288 288 288
283 283 283 283 282 282 281 281 280 280 281 283 284 284 284 283 283 283 283 284 284 284 284 284 284 284 284 283 283 283 283 285 287 288 288 288 288 288 288 288 288 288
282 282 282 282 282 281 281 280 280 280 280 281 283 284 283 282 282 282 283 283 283 283 283 283 283 283 283 283 283 283 283 284 286 287 287 288 288 288 288 288 288 288
282 282 282 282 281 281 280 280 279 279 279 280 282 282 281 281 281 281 281 281 282 282 282 282 282 283 283 283 283 283 283 284 285 286 286 287 287 288 288 288 288 288
282 281 281 281 281 280 279 279 278 278 278 279 280 280 280 279 279 279 279 280 280 281 281 282 282 282 282 283 282 282 283 284 285 285 286 286 287 287 288 288 288 288
281 281 281 281 280 279 279 278 278 277 277 278 279 279 278 278 278 278 278 278 279 279 280 281 282 282 282 282 282 282 282 283 284 285 286 286 286 287 287 287 288 288
280 280 280 280 279 279 278 277 277 276 276 277 278 277 277 276 276 276 276 277 277 278 279 280 281 281 281 281 281 282 282 283 284 285 285 285 286 286 287 287 287 288
278 278 278 278 278 277 276 276 276 275 275 276 276 276 275 275 275 275 275 275 276 277 277 278 278 279 280 281 281 282 282 282 283 284 285 285 285 286 286 286 287 287

ECMWFNIL_925_thetae_036.txt.gz
Theta_e
294 294 294 294 294 294 295 295 296 296 297 297 298 298 298 299 299 299 299 299 299 299 299 298 298 298 298 299 299 299 299 298 297 297 297 297 296 296 296 295 296 296
294 294 294 293 293 293 293 293 294 294 295 295 296 296 297 297 297 298 298 299 299 299 298 298 298 298 298 298 298 298 298 298 297 297 296 296 296 296 295 295 295 296
293 293 293 293 293 293 293 292 292 293 293 293 294 294 295 295 296 296 297 297 298 298 298 298 297 297 297 297 297 297 297 297 297 297 297 296 296 296 295 295 295 295
290 290 291 291 291 292 292 292 292 292 292 292 292 292 293 293 294 294 295 295 296 296 296 297 297 297 297 297 297 297 297 297 297 296 296 296 296 296 295 295 295 295
288 288 289 289 289 290 290 291 291 291 292 292 292 292 292 292 292 293 293 294 294 295 295 295 296 296 296 296 296 296 296 296 296 296 296 296 296 295 295 295 295 295
287 287 287 287 288 288 288 288 288 289 290 291 291 292 291 291 291 291 292 292 293 293 294 294 295 295 295 295 295 295 296 296 296 296 295 295 295 295 295 295 294 294
287 286 286 286 286 287 287 286 286 287 287 288 289 290 291 291 291 291 291 291 291 292 292 293 294 294 294 295 295 295 295 295 295 295 295 295 295 295 294 294 294 294
286 286 286 286 286 286 286 286 286 285 285 286 286 287 288 289 290 290 291 291 291 291 291 291 292 292 293 294 294 294 294 294 294 294 294 294 294 294 294 294 294 293
286 286 285 285 285 285 285 285 285 285 285 285 285 285 286 286 287 288 288 289 290 291 291 291 290 291 291 292 293 293 294 294 294 294 294 294 294 294 293 293 293 293
287 286 286 285 285 285 285 285 285 285 285 285 285 285 285 285 285 285 286 287 287 289 290 290 291 290 290 290 291 291 292 292 293 293 293 293 293 293 293 293 293 292
287 286 286 286 286 285 285 284 284 284 284 284 284 284 285 285 284 284 285 285 286 287 287 288 289 290 290 290 290 290 290 291 291 292 292 292 292 292 292 292 292 292
287 286 286 286 286 286 285 285 284 284 284 284 284 284 284 284 284 284 284 284 285 286 286 287 287 288 288 289 289 290 290 290 290 290 290 290 291 291 291 291 291 291
286 286 286 286 286 286 285 284 284 284 283 283 283 283 284 284 284 284 284 284 284 284 285 286 286 286 286 287 287 288 289 289 289 289 289 289 289 290 290 290 290 290
285 285 285 285 285 285 284 284 284 284 283 283 283 283 283 283 284 284 284 284 284 284 284 285 285 285 285 286 286 286 287 288 289 289 289 289 289 289 289 289 289 290
285 285 285 285 285 284 284 284 284 283 283 283 283 282 282 283 283 284 284 284 284 284 284 284 284 284 285 285 285 286 286 287 287 287 288 288 289 289 289 289 289 289
285 285 284 284 284 284 284 284 284 284 283 283 283 283 283 283 283 284 284 284 284 283 283 283 283 284 284 284 285 285 285 286 286 286 286 287 288 288 288 289 289 288
285 284 284 284 284 284 284 284 284 284 284 284 284 284 283 283 283 283 283 284 284 283 283 283 283 283 283 283 284 284 284 285 285 285 285 286 287 288 288 288 288 288
284 284 284 284 284 283 283 283 283 283 283 284 284 284 284 283 283 283 283 283 283 283 282 282 283 283 283 283 283 283 284 285 285 285 285 285 285 286 287 288 288 288
284 283 283 283 283 283 283 283 283 283 283 283 283 283 283 282 282 283 283 283 283 282 282 282 282 282 282 282 282 282 283 284 285 284 284 285 285 285 286 287 287 288
284 283 283 283 283 283 282 282 282 282 282 282 282 281 281 281 281 281 282 282 282 282 282 282 282 282 282 281 282 282 282 283 285 285 285 285 285 285 285 286 286 287
283 283 283 282 282 282 282 282 282 282 282 281 281 280 280 280 280 280 280 281 281 281 281 281 282 282 281 281 282 283 282 283 284 285 285 285 284 284 284 284 285 286
282 282 282 282 282 281 281 281 281 281 281 281 280 279 279 279 278 278 279 279 280 280 280 280 281 281 281 281 281 282 283 283 284 284 284 284 284 284 284 284 284 285
280 280 280 280 280 280 279 279 279 279 279 279 279 278 278 278 277 277 277 278 278 279 279 279 279 279 279 279 279 280 282 283 283 284 284 284 283 283 283 283 284 284
278 278 278 278 278 277 277 276 277 277 277 277 277 277 277 276 276 276 276 276 277 277 277 277 277 277 277 278 279 280 281 282 283 283 283 283 283 283 283 283 284 284
275 275 275 275 275 274 274 274 274 274 275 275 275 275 275 275 275 275 275 276 276 276 276 276 275 276 276 276 277 279 280 281 281 282 282 282 282 282 283 283 283 284
272 272 272 272 272 271 271 271 272 272 272 273 273 273 273 274 274 274 274 274 274 274 274 274 274 274 274 275 276 277 278 279 280 280 281 281 282 282 282 283 283 283

ECMWFNIL_925_thetae_042.txt.gz
Theta_e
288 287 287 287 287 287 287 287 287 288 288 288 288 288 289 290 290 291 291 292 292 293 293 294 294 295 296 296 296 296 297 296 296 297 297 297 297 297 297 297 297 296
286 286 286 286 286 286 285 285 285 285 286 286 286 286 286 286 287 288 289 289 290 291 291 292 292 292 293 293 294 295 295 295 295 296 295 296 296 296 296 296 297 296
285 285 285 285 285 285 285 285 285 285 285 285 285 285 285 285 285 285 286 286 287 287 289 290 290 291 291 291 292 292 293 294 294 294 295 295 295 295 295 295 296 296
285 285 285 285 285 285 285 285 285 285 286 286 285 286 286 285 285 285 285 285 285 285 285 286 287 288 289 290 291 291 291 292 292 293 293 294 294 294 294 294 294 295
285 285 285 285 285 285 286 286 286 286 286 286 286 286 286 286 286 286 286 286 286 286 285 285 285 285 286 287 287 288 289 289 290 291 291 292 292 293 293 294 294 294
286 286 286 286 286 286 286 287 287 287 287 287 287 287 287 287 287 287 287 287 287 287 286 286 286 286 285 285 285 285 285 286 287 288 289 290 291 291 291 292 292 293
286 286 286 287 287 287 287 287 287 287 287 287 287 287 287 287 287 287 287 286 287 287 287 287 286 286 286 286 286 286 285 285 285 285 286 287 288 289 290 290 290 291
286 286 286 286 286 286 286 286 285 285 285 285 286 286 286 286 286 286 286 286 286 286 287 287 287 287 286 286 286 286 286 286 286 285 285 285 285 286 287 288 289 289
286 286 285 285 285 285 285 285 284 284 284 284 284 285 285 285 285 285 285 285 285 286 286 286 286 286 286 286 286 286 286 286 286 286 286 285 285 284 285 285 286 287
285 285 285 285 285 285 285 285 285 285 284 284 284 284 284 284 284 284 284 284 284 284 284 285 285 285 285 286 285 285 285 285 285 285 285 286 286 285 285 284 284 284
285 285 285 285 285 285 285 285 285 285 285 285 284 284 284 283 283 283 283 283 283 283 283 283 284 284 284 284 285 284 284 284 284 284 285 285 285 285 285 285 285 284
285 285 285 285 284 284 284 284 284 284 284 284 284 283 283 283 282 282 282 282 282 282 282 282 282 282 282 282 283 283 283 283 283 283 284 284 284 284 285 285 285 285
285 285 285 285 284 284 284 284 284 283 283 283 283 282 282 282 281 281 281 281 281 281 281 281 281 281 281 281 281 281 282 282 282 282 282 283 283 283 283 284 284 285
286 286 285 285 285 285 285 285 285 284 283 283 282 282 281 281 280 280 280 280 280 280 280 280 280 280 280 280 280 280 281 281 281 282 282 282 282 283 283 283 284 284
286 286 286 285 285 285 285 285 284 283 283 282 281 281 280 280 279 279 279 279 279 279 279 279 279 279 279 279 280 280 280 281 281 282 282 282 283 283 283 283 283 283
285 285 285 284 284 283 283 282 282 281 280 280 280 279 279 278 278 278 278 278 278 278 278 278 278 278 278 279 280 280 281 281 281 282 282 282 282 283 283 283 283 283
283 283 282 282 281 280 280 279 279 278 278 278 278 277 277 277 276 276 276 276 277 277 277 277 277 277 277 278 279 280 280 281 281 281 281 281 282 282 282 282 282 282
280 280 279 279 278 277 277 277 276 276 276 276 276 275 275 275 275 275 275 275 275 275 275 275 275 276 276 277 278 279 279 280 280 280 280 280 281 281 281 282 282 282
278 277 277 276 276 275 275 275 275 274 274 273 273 273 273 273 273 273 273 273 273 273 273 273 273 274 275 276 277 277 278 278 279 279 279 279 279 279 280 280 281 281
276 276 275 275 274 274 274 273 273 272 272 271 271 271 270 270 270 270 270 270 270 270 270 271 271 272 273 274 275 276 276 277 277 277 277 277 277 278 278 279 279 280
274 274 274 273 273 272 272 272 271 270 270 269 269 268 268 268 268 268 268 268 268 268 268 268 269 270 271 272 273 274 275 275 276 276 276 276 276 276 277 277 277 278
273 272 272 271 271 271 270 270 269 268 268 267 267 267 266 266 266 266 266 266 266 266 266 266 266 267 268 270 271 272 273 273 273 273 274 274 274 275 275 276 276 277
271 270 270 270 269 269 268 268 267 267 266 265 265 265 264 264 264 264 264 264 264 264 264 264 264 265 267 268 269 270 271 271 271 271 272 273 273 273 273 274 274 275
269 269 269 268 268 267 266 266 265 265 264 264 263 263 263 263 263 263 263 263 263 263 263 263 264 264 265 266 267 268 269 270 270 271 271 271 272 272 272 273 273 273
269 268 268 267 266 266 265 264 264 263 263 263 262 262 262 262 262 262 262 262 262 262 263 263 263 263 264 265 266 268 269 269 270 270 270 271 271 271 272 272 272 273
268 267 266 265 265 264 264 263 263 262 262 262 262 262 261 261 261 261 261 262 262 262 262 262 263 263 263 265 266 267 268 269 269 270 270 270 270 270 271 271 271 272

ECMWFNIL_925_thetae_045.txt.gz
Theta_e
286 286 286 285 286 286 286 286 286 286 286 286 287 287 287 287 287 287 287 286 286 286 286 286 286 285 285 285 285 286 286 287 288 289 290 292 293 293 293 294 294 294
285 285 286 286 286 286 286 287 287 287 287 287 287 287 287 287 287 287 287 287 287 287 287 287 287 287 287 286 286 286 285 285 285 286 286 288 289 290 291 292 293 293
286 286 286 286 286 287 287 287 287 287 287 287 287 287 287 287 287 287 287 287 287 287 288 288 288 288 288 288 287 287 287 287 287 286 286 285 285 286 287 288 290 291
286 286 286 287 287 287 287 287 287 287 287 287 286 287 287 287 287 287 287 287 287 287 287 287 287 288 288 288 288 288 288 288 287 287 287 287 286 286 285 286 286 287
286 287 287 287 287 287 287 288 287 287 287 287 287 287 287 287 287 287 287 287 287 287 287 287 287 287 287 287 287 287 287 288 287 287 287 287 287 287 286 286 286 285
287 287 287 287 287 287 287 287 287 287 287 287 287 287 287 287 287 287 287 287 287 287 286 286 286 286 285 285 285 285 285 286 286 286 286 286 287 287 287 287 286 286
287 287 287 287 287 287 286 286 286 286 286 286 286 286 286 286 286 286 286 286 286 286 285 285 285 285 284 283 283 283 283 283 283 284 284 284 285 285 286 286 286 286
287 287 286 286 286 286 286 286 285 285 285 286 286 286 286 285 285 285 285 285 284 284 284 284 283 283 283 282 282 282 282 282 282 282 282 282 282 283 283 284 284 285
286 286 286 286 286 286 286 286 285 286 286 286 286 286 286 285 284 284 283 283 282 282 282 282 282 282 281 281 281 281 281 281 281 281 281 281 281 281 282 282 282 283
286 286 286 286 285 285 285 285 284 284 284 285 285 285 285 284 283 282 281 281 280 280 280 280 280 280 280 280 280 280 280 280 280 280 280 280 280 281 281 281 282 282
285 285 285 285 284 284 283 283 283 283 282 282 282 282 282 281 281 280 280 279 279 279 279 279 279 279 279 279 279 279 279 279 279 279 279 280 280 280 280 281 281 281
285 284 284 284 283 283 282 282 282 282 282 282 282 281 280 280 279 278 278 277 277 277 277 277 278 278 278 278 278 278 278 278 279 279 279 279 280 280 280 281 281 281
284 284 283 283 283 282 282 282 282 282 282 282 282 281 280 279 278 278 277 277 276 277 276 276 277 277 277 277 277 277 278 278 278 279 279 280 280 280 280 280 281 281
284 283 283 283 282 282 282 282 282 282 281 281 280 279 278 278 277 277 277 277 276 276 276 275 275 275 275 276 276 277 277 278 278 279 279 279 279 280 280 280 280 280
284 283 283 282 282 282 281 281 281 280 280 279 279 278 277 277 276 276 276 276 276 275 275 274 274 274 274 274 275 276 277 278 278 278 278 279 279 279 279 279 280 280
282 282 282 282 281 281 280 280 280 279 279 279 278 278 277 277 276 275 275 274 274 274 274 273 272 272 272 273 274 275 276 276 277 277 277 277 278 278 278 278 279 279
282 282 281 281 280 280 279 279 279 279 278 278 278 278 277 277 276 275 274 273 273 272 272 271 270 270 270 272 273 274 274 275 275 275 276 276 276 277 277 277 278 278
281 280 280 279 279 278 278 278 277 277 277 277 277 277 276 276 275 274 273 272 271 270 270 269 268 268 269 270 271 272 273 273 273 274 274 274 275 275 276 276 276 276
279 278 278 277 277 277 277 276 276 276 276 276 275 275 274 274 273 272 271 269 269 268 268 267 267 267 268 269 270 271 271 272 272 273 273 273 274 274 274 274 275 275
278 277 276 276 276 276 275 275 275 275 274 274 273 272 272 271 270 269 268 267 267 267 267 267 266 266 267 267 269 270 270 271 272 271 271 272 272 272 272 272 272 272
276 276 276 275 275 275 274 274 274 273 273 272 271 270 269 268 268 267 266 266 266 266 266 265 265 265 266 266 268 269 270 271 270 270 270 270 270 270 270 270 270 271
275 275 275 274 274 273 273 273 272 272 271 270 269 268 268 267 266 265 265 265 265 265 264 264 264 265 265 266 267 268 269 269 269 269 269 269 269 269 270 270 270 270
274 274 273 273 273 272 272 272 271 271 270 269 268 267 266 265 265 264 264 264 264 263 263 263 263 264 264 265 266 267 268 268 268 268 268 269 269 269 269 269 270 270
273 272 272 272 272 271 271 270 270 269 268 267 266 265 265 264 264 263 264 263 263 263 262 262 262 263 264 264 265 267 267 268 268 268 268 268 268 269 269 269 269 269
271 271 271 271 271 270 270 269 269 268 267 266 265 264 263 263 263 263 263 262 262 262 262 262 262 263 263 264 265 266 267 268 268 268 268 268 268 268 268 268 269 269
270 270 270 270 270 269 268 268 267 267 265 264 264 263 263 262 262 262 262 262 262 262 262 262 262 263 263 264 264 266 267 268 268 268 268 268 268 268 268 269 269 269

ECMWFNIL_925_thetae_048.txt.gz
Theta_e
286 287 287 287 287 287 287 287 287 287 287 287 287 287 287 287 287 287 287 287 287 287 287 287 287 287 287 287 287 287 287 286 286 286 286 287 286 286 286 286 286 286
287 287 287 287 287 287 287 287 287 287 287 287 287 287 287 287 287 287 287 286 286 286 286 286 286 286 286 286 285 285 285 285 285 285 285 285 285 285 286 286 286 286
287 287 287 287 287 287 287 287 287 287 287 287 287 287 287 287 287 287 287 286 286 285 285 284 284 284 284 284 284 284 284 284 284 283 284 284 284 284 284 284 285 285
287 287 287 287 287 287 287 288 288 288 288 288 288 288 288 288 287 287 287 287 286 286 285 284 283 283 282 282 282 282 282 282 282 282 283 283 283 283 283 283 283 284
287 287 287 287 287 287 287 288 288 288 288 288 288 288 288 287 287 287 287 287 286 286 285 284 283 283 282 282 281 281 281 281 281 281 281 282 282 282 282 282 282 282
287 287 287 287 287 287 287 287 286 287 287 287 287 287 287 287 287 287 286 286 285 285 284 283 283 282 282 281 281 281 281 281 281 280 280 280 281 281 281 281 281 281
287 287 286 286 286 286 286 286 286 286 286 286 287 287 287 286 286 286 286 285 284 283 282 282 281 281 281 280 280 280 280 280 280 280 280 280 280 280 280 280 280 280
286 286 286 285 286 286 286 286 286 286 286 286 286 286 286 285 285 284 284 283 283 282 281 281 280 280 280 280 279 279 280 279 279 279 279 279 280 280 280 280 280 280
286 286 285 285 285 286 286 286 285 285 285 285 285 284 284 283 282 282 281 281 281 280 280 280 280 280 279 279 279 279 279 279 279 279 278 278 279 279 279 279 279 279
286 286 286 285 285 285 285 285 285 284 284 283 283 282 282 281 281 280 279 279 279 279 279 278 278 278 278 278 278 278 278 278 278 278 278 278 278 278 278 279 279 279
286 286 285 285 285 285 285 284 284 284 283 283 282 282 281 281 280 280 279 279 278 278 278 277 277 277 277 276 276 276 276 276 276 277 277 277 277 278 278 278 279 279
286 285 285 285 285 284 284 284 283 283 282 282 281 281 280 280 280 279 279 278 278 278 277 277 276 276 275 275 275 275 275 275 275 275 276 276 277 277 277 278 278 278
285 285 285 285 284 284 283 283 282 281 281 280 280 280 279 279 279 278 278 278 278 277 277 276 276 275 274 274 274 274 274 274 274 274 275 275 275 276 276 276 277 277
285 285 285 284 284 283 282 281 281 280 280 279 279 278 278 278 278 278 278 277 277 277 276 276 275 274 274 273 273 273 273 273 273 274 274 274 274 274 275 275 275 276
285 284 284 283 282 281 281 280 279 279 279 278 278 277 277 277 277 277 277 277 276 276 275 275 274 273 273 272 272 272 272 272 273 273 273 273 273 273 273 273 274 274
284 283 282 282 281 280 280 279 279 278 278 278 277 277 277 277 277 276 276 276 276 275 275 274 273 272 272 271 271 271 272 272 272 272 272 272 272 272 272 272 273 273
283 283 282 281 281 280 279 279 278 278 277 277 277 277 276 276 276 276 275 275 274 274 273 273 272 272 271 271 270 270 271 272 272 272 272 272 272 272 272 272 272 272
283 283 282 281 280 279 278 278 277 277 277 276 276 276 276 275 275 275 274 274 273 273 272 271 271 271 271 270 269 269 271 272 271 271 271 271 271 271 271 271 271 271
283 282 280 279 278 278 277 277 277 276 276 276 276 275 275 275 274 274 273 273 272 272 271 271 271 271 270 269 269 269 270 271 271 271 271 270 270 270 269 269 269 269
282 281 279 278 278 277 277 276 276 276 275 275 275 275 274 274 274 273 272 272 271 271 271 271 271 271 270 269 268 268 270 271 271 270 269 269 269 268 268 269 269 269
281 279 278 277 277 276 276 275 275 275 275 274 274 273 273 273 272 271 271 271 271 270 270 271 271 271 270 268 267 268 269 270 269 268 268 268 268 268 268 268 268 269
279 278 277 276 276 276 275 274 274 274 274 273 273 272 272 271 271 270 270 270 270 270 270 270 271 270 269 267 266 268 269 269 268 268 268 268 268 268 268 268 268 268
277 277 276 275 275 275 274 274 273 273 273 272 272 271 271 271 270 270 269 269 269 269 269 269 270 270 268 266 266 267 268 268 268 267 267 267 268 268 268 268 268 268
276 275 275 274 274 274 273 273 273 273 272 271 271 270 270 270 269 269 269 269 268 268 268 268 269 269 267 266 266 267 268 268 268 268 268 268 268 268 268 268 268 268
275 274 274 274 273 273 272 272 272 272 271 271 270 270 269 269 268 268 269 268 268 268 268 267 268 268 267 266 266 267 268 268 268 268 268 268 268 268 268 268 269 269
274 274 273 273 273 272 272 272 272 271 271 270 270 269 268 268 268 268 268 268 268 268 268 268 267 267 267 266 265 267 268 269 269 269 268 268 268 269 269 269 270 270